STARLINK-3256, 50202

Orbit data source: Space-Track

STARLINK-3256, 50202 is a payload satellite owned by SpaceX/Seattle (US) in LEO that was launched on Sat, 18 Dec 2021 UTC via an FALCON 9 launch vehicle from the Air Force Western Test Range (AFWTR). Payload-class satellites include a variety of spacecraft equipped with specific instruments for various scientific and technological missions. These include communications satellites like Starlink; space stations such as the ISS; scientific satellites like the Hubble; Earth observation satellites from companies like Planet Labs, Umbra, and HawkEye 360; GPS; miniature CubeSats for education and research; and military/defense satellites.

Loading next visibility...
Identifier
50202, 2021-125AY
Orbit
LEO
Country
Flag of USUS
Related business
Manufacturer
SpaceX/Seattle
Mission
Operational Commercial Communications
Bus & Motor
STARLINK, Unknown motor
Mass
290 kg wet, ~270 kg dry
Launch date (UTC)
2021-12-18 (5 years ago)
Launch vehicle
FALCON 9
Launch site
Air Force Western Test Range (AFWTR)
Object type
Payload
Rocket body
Debris
Shape & HBR
Box + 1 Pan, 10.1 m
Radar Cross Section
13.562 m², Large (>1 m²)

Expand to show TLE details & history
Last TLE update: 22 hours ago

TLE from 22 hours ago
0 STARLINK-3256
1 50202U 21125AY  26169.34073167  .00001498  00000-0  11221-3 0  9997
2 50202  53.1604 147.1781 0001326  91.8418 268.2725 15.08832598251922
Epoch: 2026-06-18T08:10Z
TLE epoch observation values (Epoch: 2026-06-18T08:10:39.216Z)
Latitude
-0.00004°
Longitude
117.92922°
Altitude
540.685 km
Speed
7.593 km/s
True Right ascension
09h 48m 42s
True Declination
0° 00' 00"
Sunlit
Object was in daylight at epoch
Visualization orbit readout
Latitude
Unknown
Longitude
Unknown
Altitude
Unknown
Speed
Unknown
Apparent Right ascension
Unknown
Apparent Declination
Unknown
Sunlit
N/A
Visualization observer readout
Local Sidereal Time
17:07:38
Azimuth
Unknown
Elevation
Unknown
Doppler factor
Unknown
Orbital elements
Apogee altitude
540.937 km
Perigee altitude
539.103 km
Semi-major axis
6,918.157 km
Eccentricity
0.00013
Inclination
53.1604°
RAAN
147.1781°
Arg. of periapsis
91.8418°
True anomaly
268.25731°
Mean anomaly
268.2725°
Eccentric anomaly
268.26491°
Mean motion
3.77188 °/min
Orbital period
95.44 mins
BSTAR
0.00011221
Loading maneuver chart data...
Computing Atmospheric mass density...

Documentation

Showing up to 5 results
|